This is the latest recevied weather packets stored in our database for station/object E20YUC-1. If no packets are shown the sender has not sent any weather packets the latest 10 day(s).
| Time | Temp. | Humidity | Pressure | Rain* | Wind** | Luminosity | Snow |
|---|---|---|---|---|---|---|---|
| 1787392455 | 30.56° C | 70% | 995.3 hPa | 0 mm | 4.02 m/s, 0° | - | - |
| 1787391853 | 30.56° C | 71% | 995.3 hPa | 0 mm | 1.34 m/s, 0° | - | - |
| 1787391253 | 31.11° C | 71% | 995.5 hPa | 0 mm | 0 m/s | - | - |
| 1787390955 | 31.11° C | 72% | 995.6 hPa | 0 mm | 0.45 m/s, 0° | - | - |
| 1787390653 | 31.11° C | 71% | 995.5 hPa | 0 mm | 1.34 m/s, 0° | - | - |
| 1787390424 | 31.11° C | 71% | 995.5 hPa | 0 mm | 0.89 m/s, 0° | - | - |
| 1787390178 | 31.11° C | 71% | 995.3 hPa | 0 mm | 0 m/s | - | - |
| 1787389985 | 31.11° C | 71% | 995.4 hPa | 0 mm | 4.92 m/s, 0° | - | - |
| 1787389684 | 31.11° C | 70% | 995.4 hPa | 0 mm | 3.13 m/s, 0° | - | - |
| 1787389383 | 31.11° C | 70% | 995.5 hPa | 0 mm | 2.68 m/s, 0° | - | - |
| 1787389083 | 31.11° C | 71% | 995.4 hPa | 0 mm | 4.47 m/s, 0° | - | - |
| 1787388785 | 31.67° C | 71% | 995.3 hPa | 0 mm | 0.89 m/s, 22° | - | - |
| 1787388485 | 31.67° C | 71% | 995.3 hPa | 0 mm | 0.89 m/s, 0° | - | - |
| 1787388183 | 31.67° C | 70% | 995.5 hPa | 0 mm | 3.13 m/s, 0° | - | - |
| 1787387883 | 32.22° C | 69% | 995.5 hPa | 0 mm | 0 m/s | - | - |
| 1787387283 | 32.22° C | 67% | 995.5 hPa | 0 mm | 2.24 m/s, 0° | - | - |
| 1787386985 | 32.22° C | 66% | 995.6 hPa | 0 mm | 2.68 m/s, 0° | - | - |
| 1787386383 | 32.22° C | 33% | 995.5 hPa | 0 mm | 1.34 m/s, 0° | - | - |
| 1787385783 | 32.22° C | 67% | 995.6 hPa | 0 mm | 6.26 m/s, 0° | - | - |
| 1787385485 | 32.22° C | 67% | 995.4 hPa | 0 mm | 2.24 m/s, 0° | - | - |
| 1787384883 | 32.22° C | 67% | 995.8 hPa | 0 mm | 7.15 m/s, 0° | - | - |
| 1787384283 | 32.22° C | 67% | 995.6 hPa | 0 mm | 0 m/s | - | - |
| 1787383984 | 32.22° C | 67% | 995.7 hPa | 0 mm | 3.58 m/s, 0° | - | - |
| 1787383683 | 32.22° C | 67% | 995.7 hPa | 0 mm | 0 m/s | - | - |
| 1787383082 | 32.22° C | 67% | 995.9 hPa | 0 mm | 2.24 m/s, 0° | - | - |
* Rain latest hour (hover to see other rain measurements)
** Current wind speed in m/s (hover to see current wind gust speed)